Torna al catalogo

STARLINK-5659

AttivoComunicazioniVLEO
NORAD 55351·PAYLOAD·🇺🇸 United States

Lanciato Jan 26, 2023 da Cape Canaveral Space Force Station

Loading…

Prossimi Passaggi (prossime 24 ore)

TLE

AggiornatoSource: CelesTrak SupGP

Epoca: Sep 14, 2026, 20:57 UTC

1 55351C 23013W   26257.87340278 -.00038128  00000+0 -13810-2 0  2574
2 55351  43.0011 314.7947 0001594 268.8080 283.1474 15.27597499    14

Traccia STARLINK-5659 in tempo reale con AllMySat

Download on the App Store